User: anonymous   Login
Location: Rancho Del Sol Observatory
(38.7214°N, 120.6350°W)
Time: 09:29:20
(UTC-07:00)
Language:

Cosmos 2221 Rocket - Orbit

View from above orbital plane
View from above orbital plane
View from above satellite
View from above satellite

Ground track
Ground track

The orbit data is extracted from the following two-line orbital elements,

1 22237U 92080B   16210.53015529  .00000040  00000-0  23540-5 0  9998
2 22237  82.5103  58.7926 0019689 179.4396 241.3340 14.78271730275625
Epoch (UTC): 28 July 2016 12:43:25
Eccentricity: 0.0019689
inclination: 82.5103°
perigee height: 621 km
apogee height: 648 km
right ascension of ascending node: 58.7926°
argument of perigee: 179.4396°
revolutions per day: 14.78271730
mean anomaly at epoch: 241.3340°
orbit number at epoch: 27562

The dashed part of the orbit path shows where the satellite is in the earth's shadow,  

DLR